When you browse on this site, cookies collect data to enhance your experience and personalize the content and advertising you see.
Visit our Privacy Policy to learn more. By continuing to use the site, you agree to this use of cookies and data.
  • In United Kingdom
  • List of Countries
  • For 7 days
  • Water Temperature
  • Satellite Maps
  • Weather Map
  • Weather Widgets
  • user-avatar
    Login

    Hourly Weather Molepolole

    Today, 24 January, Thursday

    Time Temperature Precipitation Wind Pressure Humidity
    00:00 +30°C° 0 mm 1 mps 662 mmHg 30%
    01:00 +30°C° 0 mm 1 mps 662 mmHg 31%
    02:00 +28°C° 0 mm 0 mps 662 mmHg 34%
    03:00 +27°C° 0 mm 0 mps 662 mmHg 35%
    04:00 +27°C° 0 mm 0 mps 662 mmHg 35%
    05:00 +27°C° 0 mm 0 mps 662 mmHg 36%
    06:00 +29°C° 0 mm 1 mps 663 mmHg 34%
    07:00 +30°C° 0 mm 1 mps 663 mmHg 32%
    08:00 +31°C° 0 mm 1 mps 664 mmHg 31%
    09:00 +32°C° 0 mm 1 mps 664 mmHg 28%
    10:00 +35°C° 0 mm 2 mps 664 mmHg 26%
    11:00 +36°C° 0 mm 2 mps 664 mmHg 24%
    12:00 +36°C° 0 mm 1 mps 664 mmHg 21%
    13:00 +37°C° 0 mm 1 mps 664 mmHg 19%
    14:00 +36°C° 0 mm 0 mps 664 mmHg 17%
    15:00 +39°C° 0 mm 1 mps 663 mmHg 17%
    16:00 +39°C° 0 mm 1 mps 663 mmHg 17%
    17:00 +37°C° 0 mm 1 mps 662 mmHg 18%
    18:00 +37°C° 0 mm 2 mps 662 mmHg 20%
    19:00 +36°C° 0 mm 2 mps 662 mmHg 22%
    20:00 +34°C° 0 mm 2 mps 662 mmHg 23%
    21:00 +32°C° 0 mm 2 mps 662 mmHg 25%
    22:00 +31°C° 0 mm 3 mps 662 mmHg 27%
    23:00 +31°C° 0 mm 3 mps 662 mmHg 29%

    Tomorrow, 25 January, Friday

    Time Temperature Precipitation Wind Pressure Humidity
    00:00 +30°C° 0 mm 4 mps 662 mmHg 31%
    01:00 +30°C° 0 mm 5 mps 663 mmHg 33%
    02:00 +29°C° 0 mm 6 mps 663 mmHg 36%
    03:00 +28°C° 0 mm 5 mps 663 mmHg 40%
    04:00 +27°C° 0 mm 5 mps 663 mmHg 43%
    05:00 +27°C° 0 mm 5 mps 663 mmHg 47%
    06:00 +27°C° 0 mm 5 mps 664 mmHg 45%
    07:00 +27°C° 0 mm 5 mps 664 mmHg 43%
    08:00 +28°C° 0 mm 5 mps 665 mmHg 40%
    09:00 +29°C° 0 mm 6 mps 665 mmHg 38%
    10:00 +32°C° 0 mm 6 mps 666 mmHg 35%
    11:00 +34°C° 0 mm 6 mps 666 mmHg 33%
    12:00 +35°C° 0 mm 6 mps 666 mmHg 29%
    13:00 +37°C° 0 mm 5 mps 665 mmHg 26%
    14:00 +39°C° 0 mm 5 mps 665 mmHg 23%
    15:00 +38°C° 0 mm 4 mps 664 mmHg 21%
    16:00 +40°C° 0 mm 4 mps 664 mmHg 20%
    17:00 +39°C° 0 mm 3 mps 663 mmHg 18%
    18:00 +36°C° 0.1 mm 5 mps 663 mmHg 24%
    19:00 +34°C° 0.1 mm 8 mps 663 mmHg 30%
    20:00 +31°C° 0.1 mm 10 mps 663 mmHg 36%
    21:00 +29°C° 0.6 mm 8 mps 663 mmHg 39%
    22:00 +29°C° 0.6 mm 6 mps 664 mmHg 41%
    23:00 +28°C° 0.6 mm 5 mps 664 mmHg 44%

    Day after tomorrow, 26 January, Saturday

    Time Temperature Precipitation Wind Pressure Humidity
    00:00 +28°C° 0 mm 5 mps 664 mmHg 48%
    01:00 +27°C° 0 mm 5 mps 664 mmHg 53%
    02:00 +26°C° 0 mm 5 mps 663 mmHg 58%
    03:00 +26°C° 0.1 mm 4 mps 663 mmHg 60%
    04:00 +25°C° 0.1 mm 4 mps 663 mmHg 62%
    05:00 +25°C° 0.1 mm 3 mps 663 mmHg 64%
    06:00 +25°C° 0.9 mm 4 mps 663 mmHg 64%
    07:00 +25°C° 0.9 mm 4 mps 664 mmHg 64%
    08:00 +25°C° 0.9 mm 4 mps 665 mmHg 63%
    09:00 +27°C° 0.1 mm 4 mps 665 mmHg 55%
    10:00 +30°C° 0.1 mm 4 mps 666 mmHg 47%
    11:00 +33°C° 0.1 mm 5 mps 666 mmHg 39%
    12:00 +34°C° 0 mm 5 mps 666 mmHg 34%
    13:00 +36°C° 0 mm 5 mps 665 mmHg 30%
    14:00 +39°C° 0 mm 5 mps 665 mmHg 25%
    15:00 +37°C° 0 mm 5 mps 664 mmHg 26%
    16:00 +37°C° 0 mm 4 mps 663 mmHg 26%
    17:00 +37°C° 0 mm 4 mps 663 mmHg 26%
    18:00 +35°C° 0 mm 3 mps 663 mmHg 29%
    19:00 +34°C° 0 mm 3 mps 663 mmHg 32%
    20:00 +31°C° 0 mm 3 mps 663 mmHg 35%
    21:00 +29°C° 1.5 mm 3 mps 663 mmHg 46%
    22:00 +27°C° 1.5 mm 4 mps 663 mmHg 57%
    23:00 +25°C° 1.5 mm 4 mps 663 mmHg 68%

    27 January, Sunday

    Time Temperature Precipitation Wind Pressure Humidity
    00:00 +23°C° 0.1 mm 5 mps 663 mmHg 67%
    01:00 +23°C° 0.1 mm 6 mps 663 mmHg 66%
    02:00 +23°C° 0.1 mm 7 mps 663 mmHg 66%
    03:00 +22°C° 2.2 mm 7 mps 663 mmHg 72%
    04:00 +21°C° 2.2 mm 7 mps 663 mmHg 79%
    05:00 +21°C° 2.2 mm 6 mps 664 mmHg 86%
    06:00 +22°C° 0.1 mm 7 mps 664 mmHg 82%
    07:00 +23°C° 0.1 mm 7 mps 665 mmHg 78%
    08:00 +23°C° 0.1 mm 8 mps 665 mmHg 75%
    09:00 +24°C° 0 mm 7 mps 665 mmHg 71%
    10:00 +26°C° 0 mm 7 mps 665 mmHg 68%
    11:00 +26°C° 0 mm 6 mps 665 mmHg 64%
    12:00 +28°C° 0 mm 6 mps 665 mmHg 57%
    13:00 +32°C° 0 mm 6 mps 665 mmHg 49%
    14:00 +34°C° 0 mm 5 mps 665 mmHg 41%
    15:00 +34°C° 0 mm 5 mps 664 mmHg 42%
    16:00 +33°C° 0 mm 5 mps 664 mmHg 42%
    17:00 +33°C° 0 mm 5 mps 663 mmHg 43%
    18:00 +30°C° 0.3 mm 6 mps 663 mmHg 47%
    19:00 +29°C° 0.3 mm 8 mps 663 mmHg 52%
    20:00 +28°C° 0.3 mm 9 mps 663 mmHg 56%
    21:00 +26°C° 3.3 mm 9 mps 663 mmHg 62%
    22:00 +24°C° 3.3 mm 9 mps 664 mmHg 68%
    23:00 +23°C° 3.3 mm 9 mps 664 mmHg 75%

    28 January, Monday

    Time Temperature Precipitation Wind Pressure Humidity
    00:00 +22°C° 0 mm 8 mps 664 mmHg 75%
    01:00 +22°C° 0 mm 7 mps 663 mmHg 75%
    02:00 +21°C° 0 mm 6 mps 663 mmHg 75%
    03:00 +21°C° 0 mm 6 mps 663 mmHg 77%
    04:00 +20°C° 0 mm 6 mps 663 mmHg 79%
    05:00 +20°C° 0 mm 5 mps 663 mmHg 81%
    06:00 +20°C° 0 mm 5 mps 664 mmHg 79%
    07:00 +20°C° 0 mm 5 mps 664 mmHg 78%
    08:00 +21°C° 0 mm 6 mps 665 mmHg 77%
    09:00 +22°C° 0 mm 6 mps 665 mmHg 72%
    10:00 +23°C° 0 mm 6 mps 666 mmHg 68%
    11:00 +24°C° 0 mm 6 mps 666 mmHg 63%
    12:00 +27°C° 0 mm 6 mps 666 mmHg 57%
    13:00 +29°C° 0 mm 5 mps 665 mmHg 50%
    14:00 +30°C° 0 mm 4 mps 665 mmHg 44%
    15:00 +32°C° 0 mm 4 mps 665 mmHg 41%
    16:00 +33°C° 0 mm 3 mps 664 mmHg 38%
    17:00 +33°C° 0 mm 3 mps 664 mmHg 36%
    18:00 +31°C° 0 mm 3 mps 663 mmHg 40%
    19:00 +29°C° 0 mm 4 mps 663 mmHg 45%
    20:00 +27°C° 0 mm 5 mps 663 mmHg 50%
    21:00 +27°C° 0 mm 4 mps 663 mmHg 53%
    22:00 +26°C° 0 mm 4 mps 664 mmHg 55%
    23:00 +25°C° 0 mm 4 mps 664 mmHg 58%

    29 January, Tuesday

    Time Temperature Precipitation Wind Pressure Humidity
    00:00 +23°C° 0 mm 4 mps 664 mmHg 61%
    01:00 +23°C° 0 mm 5 mps 664 mmHg 64%
    02:00 +22°C° 0 mm 5 mps 663 mmHg 67%
    03:00 +22°C° 0.3 mm 4 mps 664 mmHg 70%
    04:00 +21°C° 0.3 mm 3 mps 664 mmHg 73%
    05:00 +21°C° 0.3 mm 3 mps 664 mmHg 76%
    06:00 +21°C° 0.2 mm 3 mps 665 mmHg 74%
    07:00 +22°C° 0.2 mm 4 mps 666 mmHg 72%
    08:00 +23°C° 0.2 mm 5 mps 666 mmHg 70%
    09:00 +25°C° 0 mm 5 mps 666 mmHg 63%
    10:00 +27°C° 0 mm 5 mps 667 mmHg 57%
    11:00 +29°C° 0 mm 4 mps 667 mmHg 50%
    12:00 +30°C° 0 mm 4 mps 666 mmHg 46%
    13:00 +31°C° 0 mm 3 mps 666 mmHg 42%
    14:00 +32°C° 0 mm 2 mps 665 mmHg 38%
    15:00 +32°C° 0 mm 2 mps 665 mmHg 37%
    16:00 +34°C° 0 mm 2 mps 665 mmHg 36%
    17:00 +33°C° 0 mm 1 mps 664 mmHg 35%
    18:00 +31°C° 0 mm 1 mps 664 mmHg 38%
    19:00 +30°C° 0 mm 1 mps 664 mmHg 41%
    20:00 +29°C° 0 mm 1 mps 664 mmHg 44%
    21:00 +28°C° 0 mm 1 mps 664 mmHg 45%
    22:00 +28°C° 0 mm 2 mps 664 mmHg 47%
    23:00 +27°C° 0 mm 2 mps 664 mmHg 48%
    Show more